Rbgn^[z[y[W
メイン
   新天体発見情報
     Comet P/2018 L4 (PANSTARRS)
投稿するにはまず登録を

スレッド表示 | 新しいものから 前のトピック | 次のトピック | 下へ
投稿者 スレッド
佐藤裕久
投稿日時: 2018-6-26 11:18
モデレータ
登録日: 2005-6-12
居住地: 日本
投稿: 2505
オンライン
Comet P/2018 L4 (PANSTARRS)

R. Weryk (ハワイ大学天文学研究所)の書込みによると、6月8.5日UT、Haleakala にある1.8-m 
Pan-STARRS1 Ritchey-Chretien望遠鏡によるシーイング1".0 で得た画像から暗い彗星を発見した。
Werykは、C. Wipper、S. Prunetと一緒にMauna Keaにある3.6-m Canada-France-Hawaii Telescope
で得た60秒gri-バンド確認の露出3枚を得た。p.a.約200°に6" の尾が見え、この彗星のイメージ
のFWHM(半値全幅)は近傍の恒星が0".7に対して1".2 であった。
その後6月4日と5日のPan-STARRS1とPan-STARRS2の一夜の観測が確認された。
小惑星センターのPCCP webpageに公表後、佐藤英貴氏(東京都文京区, iTelescope天文台,6月12.4日,
 60秒露出16枚のスタック, 0.61-m f/6.5 アストログラフ, Auberry, カリフォルニア州, 遠隔操作:
コマは4"x7"で北の方に伸びており、明らかな尾はない。3".8の円形範囲で測定したw-バンド光度は
20.3等であった)らCCD観測者によって彗星状と観測された。
Palomarの1.2-m Schmidt望遠鏡による、5月19.32-19.44日の発見前の小惑星状の観測があった。

発見位置は次のとおり、

     2018 UT             R.A. (2000) Decl.       Mag.
     June  4.52615   17 27 59.87   +28 27 29.3   19.9
           5.38409   17 27 47.86   +28 27 22.9   21.4
           5.39406   17 27 47.64   +28 27 22.9
           5.40397   17 27 47.44   +28 27 22.9   20.9
           8.50985   17 26 57.14   +28 22 56.7   21.0
           8.52162   17 26 56.92   +28 22 54.8   21.0
           8.53334   17 26 56.70   +28 22 52.9   21.0
           8.54509   17 26 56.41   +28 22 50.8   20.9

楕円軌道要素と位置推算表は次のとおり、

Orbital elements:
    P/2018 L4 (PANSTARRS)
Epoch 2018 July 21.0 TT = JDT 2458320.5
T 2018 July 31.76006 TT                                 MPCW
q   1.6764108            (2000.0)            P               Q
n   0.09017579     Peri.  140.35638     +0.30708417     +0.91672356
a   4.9250359      Node   145.21941     -0.94653813     +0.32208943
e   0.6596145      Incl.   26.61738     -0.09881740     -0.23638171
P  10.93
From 79 observations 2018 May 19-June 22, mean residual 0".5.

    P/2018 L4 (PANSTARRS)
Epoch 2029 July 3.0 TT = JDT 2462320.5
T 2029 July 10.76306 TT                                 MPCW
q   1.7566734            (2000.0)            P               Q
n   0.08658454     Peri.  138.48374     +0.27206461     +0.92794074
a   5.0602949      Node   144.96311     -0.95761962     +0.28710815
e   0.6528516      Incl.   26.34447     -0.09458070     -0.23768656
P  11.38
From 79 observations 2018 May 19-June 22, mean residual 0".5.

    P/2018 L4 (PANSTARRS)
Epoch 2018 Mar. 23.0 TT = JDT 2458200.5
T 2018 July 31.75752 TT                                 MPCW
q   1.6763874            (2000.0)            P               Q
n   0.09014814     Peri.  140.35046     +0.30709373     +0.91673298
a   4.9260429      Node   145.22605     -0.94653872     +0.32208897
e   0.6596888      Incl.   26.61708     -0.09878207     -0.23634581
P  10.93
From 79 observations 2018 May 19-June 22, mean residual 0".5.

Ephemeris:
    P/2018 L4 (PANSTARRS)
Date    TT    R. A. (2000) Decl.     Delta      r     Elong.  Phase   m1
2018 05 23    17 29 44.6 +27 39 21   1.0370  1.8340   127.0    26.2  20.2
...
2018 06 07    17 27 22.4 +28 25 53   0.9575  1.7760   128.4    26.6  19.9
...
2018 06 15    17 25 00.3 +27 52 07   0.9240  1.7499   128.8    26.9  19.8
...
2018 06 21    17 23 11.8 +26 56 16   0.9030  1.7327   129.0    27.1  19.7
2018 06 22    17 22 55.0 +26 44 21   0.8999  1.7300   129.0    27.2  19.7
2018 06 23    17 22 38.8 +26 31 41   0.8969  1.7274   129.0    27.2  19.6
...
2018 06 29    17 21 17.3 +24 59 58   0.8809  1.7131   128.9    27.5  19.6
...
2018 07 07    17 20 29.5 +22 16 57   0.8660  1.6975   128.6    27.9  19.5
...
2018 07 22    17 23 40.4 +15 21 33   0.8610  1.6797   126.8    29.0  19.4

(CBET 4527、MPEC 2018-M83)

スレッド表示 | 新しいものから 前のトピック | 次のトピック | トップ

投稿するにはまず登録を
 
© 1999 Tsutomu Seki.